Location: Tierra del Sol
(32.6128°N, 116.3319°W)
Time: 15:36:47
(UTC-07:00)

Tiangong 2 - Pass Details

Date: 11 October 2017
Orbit: 388 x 391 km, 42.8° (Epoch: 23 October)

Event Time Altitude Azimuth Distance (km) Brightness Sun altitude
Exits shadow 04:43:25 15° 39° (NE) 1,165 4.0 -26.7°
Drops below altitude 10° 04:44:07 10° 45° (NE) 1,420 4.6 -26.5°
Sets 04:46:18 0° 54° (NE) 2,277 6.0 -26.1°
